This demonstration page uses our WeatherBlox Daily Observations layout. Learn more.

Left ArrowRight Arrow

34.02893, -84.19858

Hourly Observations for August 29, 2022

Temp ( °F °C ) Dew Point ( °F °C ) Humidity (%) Winds ( mph kmh ) Pressure ( in mb ) Visibility ( mi km ) Precip ( " mm )
12:53 am 00:53 Clear 72 22.2 70 21.1 93 93 Calm 30.03 1017 10 16 0.00 0.00
1:53 am 01:53 Mostly Clear 73 22.8 70 21.1 90 90 Calm 30.01 1016 10 16 0.00 0.00
2:53 am 02:53 Clear 73 22.8 69 20.6 87 87 Calm 30.00 1016 10 16 0.00 0.00
3:53 am 03:53 Clear 72 22.2 69 20.6 91 91 Calm 30.00 1016 10 16 0.00 0.00
4:53 am 04:53 Clear 72 22.2 69 20.6 91 91 Calm 29.99 1016 10 16 0.00 0.00
5:53 am 05:53 Clear 71 21.7 69 20.6 93 93 Calm 30.01 1016 10 16 0.00 0.00
6:53 am 06:53 Clear 71 21.7 69 20.6 93 93 Calm 30.02 1017 10 16 0.00 0.00
7:53 am 07:53 Sunny 72 22.2 70 21.1 93 93 Calm 30.04 1017 9 14 0.00 0.00
8:53 am 08:53 Sunny 76 24.4 71 21.7 85 85 NNE 5 7 30.05 1018 10 16 0.00 0.00
9:53 am 09:53 Sunny 79 26.1 72 22.2 79 79 VRB 3 6 30.06 1018 10 16 0.00 0.00
10:27 am 10:27 Mostly Cloudy 81 27.2 71 21.7 72 72 VRB 5 7 30.07 1018 10 16 0.00 0.00
10:53 am 10:53 Mostly Cloudy 81 27.2 71 21.7 72 72 VRB 3 6 30.07 1018 10 16 0.00 0.00
11:53 am 11:53 Cloudy 81 27.2 71 21.7 72 72 VRB 3 6 30.08 1019 10 16 0.00 0.00
12:55 pm 12:55 Mostly Cloudy 85 29.4 71 21.7 63 63 VRB 6 9 30.06 1018 10 16 0.00 0.00
1:53 pm 13:53 Partly Cloudy 88 31.1 71 21.7 57 57 VRB 5 7 30.04 1017 10 16 0.00 0.00
2:53 pm 14:53 Mostly Cloudy 88 31.1 70 21.1 55 55 Calm 30.01 1016 10 16 0.00 0.00
3:53 pm 15:53 Partly Cloudy 88 31.1 71 21.7 57 57 VRB 3 6 29.98 1015 10 16 0.00 0.00
4:53 pm 16:53 Mostly Sunny 88 31.1 70 21.1 55 55 VRB 6 9 29.97 1015 10 16 0.00 0.00
5:53 pm 17:53 Sunny 87 30.6 70 21.1 57 57 undefined N/A 29.96 1014 10 16 0.00 0.00
6:53 pm 18:53 Sunny 87 30.6 69 20.6 55 55 Calm 29.96 1014 10 16 0.00 0.00
7:53 pm 19:53 Sunny 81 27.2 71 21.7 72 72 Calm 29.96 1015 10 16 0.00 0.00
8:53 pm 20:53 Clear 77 25 71 21.7 82 82 Calm 29.98 1015 10 16 0.00 0.00
9:53 pm 21:53 Partly Cloudy 78 25.6 70 21.1 76 76 VRB 5 7 30.01 1016 10 16 0.00 0.00
10:53 pm 22:53 Clear 75 23.9 70 21.1 84 84 Calm 30.01 1016 10 16 0.00 0.00
11:53 pm 23:53 Clear 73 22.8 70 21.1 90 90 Calm 29.99 1016 10 16 0.00 0.00

Powered by AerisWeather